Tracking 27420 objects as of 11-Jun-2023
HD Live streaming from Space Station
objects crossing your sky now

STARLINK-4774

Track STARLINK-4774 now!
10-day predictions
STARLINK-4774 is classified as:


NORAD ID: 56138
Int'l Code: 2023-046AY
Perigee: 541.4 km
Apogee: 543.2 km
Inclination: 43.0 °
Period: 95.3 minutes
Semi major axis: 6913 km
RCS: Unknown
Launch date: March 29, 2023
Source: United States (US)
Launch site: AIR FORCE EASTERN TEST RANGE (AFETR)
Your satellite tracking list
Your tracking list is empty




NASA's NSSDC Master Catalog

Two Line Element Set (TLE):
1 56138U 23046AY  23161.58334491 -.00889487  00000-0 -57502-1 0  9994
2 56138  42.9972 196.7181 0001275 286.9568 193.3220 15.10334384  1306
Source of the keplerian elements: AFSPC